Year,Month,Day,Hour,Minute,Value (Times are PST for temperature in C)
2008,08,13,00,00,16.20
2008,08,13,00,01,16.20
2008,08,13,00,02,16.20
2008,08,13,00,03,16.20
2008,08,13,00,04,16.10
2008,08,13,00,05,16.10
2008,08,13,00,06,16.10
2008,08,13,00,07,16.10
2008,08,13,00,08,16.10
2008,08,13,00,09,16.20
2008,08,13,00,10,16.20
2008,08,13,00,11,16.30
2008,08,13,00,12,16.40
2008,08,13,00,13,16.40
2008,08,13,00,14,16.60
2008,08,13,00,15,16.70
2008,08,13,00,16,16.80
2008,08,13,00,17,16.90
2008,08,13,00,18,17.00
2008,08,13,00,19,17.20
2008,08,13,00,20,17.30
2008,08,13,00,21,17.40
2008,08,13,00,22,17.50
2008,08,13,00,23,17.60
2008,08,13,00,24,17.70
2008,08,13,00,25,17.80
2008,08,13,00,26,17.90
2008,08,13,00,27,17.90
2008,08,13,00,28,17.90
2008,08,13,00,29,18.00
2008,08,13,00,30,18.10
2008,08,13,00,31,18.10
2008,08,13,00,32,18.20
2008,08,13,00,33,18.20
2008,08,13,00,34,18.20
2008,08,13,00,35,18.20
2008,08,13,00,36,18.20
2008,08,13,00,37,18.20
2008,08,13,00,38,18.20
2008,08,13,00,39,18.20
2008,08,13,00,40,18.20
2008,08,13,00,41,18.00
2008,08,13,00,42,17.80
2008,08,13,00,43,17.70
2008,08,13,00,44,17.50
2008,08,13,00,45,17.40
2008,08,13,00,46,17.30
2008,08,13,00,47,17.20
2008,08,13,00,48,17.10
2008,08,13,00,49,17.00
2008,08,13,00,50,16.90
2008,08,13,00,51,16.80
2008,08,13,00,52,16.80
2008,08,13,00,53,16.70
2008,08,13,00,54,16.70
2008,08,13,00,55,16.60
2008,08,13,00,56,16.60
2008,08,13,00,57,16.50
2008,08,13,00,58,16.40
2008,08,13,00,59,16.40
2008,08,13,01,00,16.40
2008,08,13,01,01,16.40
2008,08,13,01,02,16.40
2008,08,13,01,03,16.40
2008,08,13,01,04,16.30
2008,08,13,01,05,16.30
2008,08,13,01,06,16.30
2008,08,13,01,07,16.30
2008,08,13,01,08,16.20
2008,08,13,01,09,16.20
2008,08,13,01,10,16.20
2008,08,13,01,11,16.20
2008,08,13,01,12,16.20
2008,08,13,01,13,16.10
2008,08,13,01,14,16.10
2008,08,13,01,15,16.10
2008,08,13,01,16,16.10
2008,08,13,01,17,16.10
2008,08,13,01,18,16.10
2008,08,13,01,19,16.10
2008,08,13,01,20,15.90
2008,08,13,01,21,15.90
2008,08,13,01,22,15.90
2008,08,13,01,23,15.90
2008,08,13,01,24,15.80
2008,08,13,01,25,15.80
2008,08,13,01,26,15.80
2008,08,13,01,27,15.80
2008,08,13,01,28,15.80
2008,08,13,01,29,15.80
2008,08,13,01,30,15.80
2008,08,13,01,31,15.80
2008,08,13,01,32,15.80
2008,08,13,01,33,15.80
2008,08,13,01,34,15.80
2008,08,13,01,35,15.80
2008,08,13,01,36,15.70
2008,08,13,01,37,15.70
2008,08,13,01,38,15.70
2008,08,13,01,39,15.70
2008,08,13,01,40,15.70
2008,08,13,01,41,15.60
2008,08,13,01,42,15.60
2008,08,13,01,43,15.60
2008,08,13,01,44,15.50
2008,08,13,01,45,15.50
2008,08,13,01,46,15.50
2008,08,13,01,47,15.50
2008,08,13,01,48,15.50
2008,08,13,01,49,15.50
2008,08,13,01,50,15.50
2008,08,13,01,51,15.50
2008,08,13,01,52,15.50
2008,08,13,01,53,15.50
2008,08,13,01,54,15.50
2008,08,13,01,55,15.50
2008,08,13,01,56,15.50
2008,08,13,01,57,15.50
2008,08,13,01,58,15.50
2008,08,13,01,59,15.50
2008,08,13,02,00,15.50
2008,08,13,02,01,15.50
2008,08,13,02,02,15.60
2008,08,13,02,03,15.60
2008,08,13,02,04,15.60
2008,08,13,02,05,15.60
2008,08,13,02,06,15.60
2008,08,13,02,07,15.70
2008,08,13,02,08,15.70
2008,08,13,02,09,15.70
2008,08,13,02,10,15.70
2008,08,13,02,11,15.70
2008,08,13,02,12,15.70
2008,08,13,02,13,15.80
2008,08,13,02,14,15.80
2008,08,13,02,15,15.80
2008,08,13,02,16,15.80
2008,08,13,02,17,15.70
2008,08,13,02,18,15.70
2008,08,13,02,19,15.80
2008,08,13,02,20,15.70
2008,08,13,02,21,15.70
2008,08,13,02,22,15.70
2008,08,13,02,23,15.70
2008,08,13,02,24,15.70
2008,08,13,02,25,15.70
2008,08,13,02,26,15.70
2008,08,13,02,27,15.70
2008,08,13,02,28,15.70
2008,08,13,02,29,15.70
2008,08,13,02,30,15.80
2008,08,13,02,31,15.80
2008,08,13,02,32,15.80
2008,08,13,02,33,15.80
2008,08,13,02,34,15.80
2008,08,13,02,35,15.80
2008,08,13,02,36,15.80
2008,08,13,02,37,15.80
2008,08,13,02,38,15.80
2008,08,13,02,39,15.80
2008,08,13,02,40,15.70
2008,08,13,02,41,15.70
2008,08,13,02,42,15.70
2008,08,13,02,43,15.70
2008,08,13,02,44,15.70
2008,08,13,02,45,15.70
2008,08,13,02,46,15.70
2008,08,13,02,47,15.70
2008,08,13,02,48,15.70
2008,08,13,02,49,15.70
2008,08,13,02,50,15.70
2008,08,13,02,51,15.60
2008,08,13,02,52,15.60
2008,08,13,02,53,15.60
2008,08,13,02,54,15.60
2008,08,13,02,55,15.60
2008,08,13,02,56,15.60
2008,08,13,02,57,15.60
2008,08,13,02,58,15.60
2008,08,13,02,59,15.60
2008,08,13,03,00,15.60
2008,08,13,03,01,15.60
2008,08,13,03,02,15.60
2008,08,13,03,03,15.60
2008,08,13,03,04,15.60
2008,08,13,03,05,15.60
2008,08,13,03,06,15.60
2008,08,13,03,07,15.60
2008,08,13,03,08,15.60
2008,08,13,03,09,15.60
2008,08,13,03,10,15.60
2008,08,13,03,11,15.60
2008,08,13,03,12,15.60
2008,08,13,03,13,15.60
2008,08,13,03,14,15.60
2008,08,13,03,15,15.60
2008,08,13,03,16,15.50
2008,08,13,03,17,15.50
2008,08,13,03,18,15.50
2008,08,13,03,19,15.50
2008,08,13,03,20,15.50
2008,08,13,03,21,15.50
2008,08,13,03,22,15.50
2008,08,13,03,23,15.50
2008,08,13,03,24,15.50
2008,08,13,03,25,15.40
2008,08,13,03,26,15.40
2008,08,13,03,27,15.40
2008,08,13,03,28,15.40
2008,08,13,03,29,15.40
2008,08,13,03,30,15.40
2008,08,13,03,31,15.40
2008,08,13,03,32,15.40
2008,08,13,03,33,15.40
2008,08,13,03,34,15.30
2008,08,13,03,35,15.30
2008,08,13,03,36,15.30
2008,08,13,03,37,15.30
2008,08,13,03,38,15.30
2008,08,13,03,39,15.30
2008,08,13,03,40,15.30
2008,08,13,03,41,15.30
2008,08,13,03,42,15.30
2008,08,13,03,43,15.30
2008,08,13,03,44,15.20
2008,08,13,03,45,15.20
2008,08,13,03,46,15.20
2008,08,13,03,47,15.20
2008,08,13,03,48,15.10
2008,08,13,03,49,15.10
2008,08,13,03,50,15.10
2008,08,13,03,51,15.00
2008,08,13,03,52,15.00
2008,08,13,03,53,15.00
2008,08,13,03,54,15.00
2008,08,13,03,55,14.90
2008,08,13,03,56,14.90
2008,08,13,03,57,14.90
2008,08,13,03,58,14.90
2008,08,13,03,59,14.80
2008,08,13,04,00,14.80
2008,08,13,04,01,14.80
2008,08,13,04,02,14.80
2008,08,13,04,03,14.80
2008,08,13,04,04,14.80
2008,08,13,04,05,14.80
2008,08,13,04,06,14.80
2008,08,13,04,07,14.80
2008,08,13,04,08,14.70
2008,08,13,04,09,14.70
2008,08,13,04,10,14.70
2008,08,13,04,11,14.70
2008,08,13,04,12,14.70
2008,08,13,04,13,14.60
2008,08,13,04,14,14.60
2008,08,13,04,15,14.60
2008,08,13,04,16,14.60
2008,08,13,04,17,14.60
2008,08,13,04,18,14.50
2008,08,13,04,19,14.50
2008,08,13,04,20,14.50
2008,08,13,04,21,14.50
2008,08,13,04,22,14.50
2008,08,13,04,23,14.50
2008,08,13,04,24,14.50
2008,08,13,04,25,14.50
2008,08,13,04,26,14.60
2008,08,13,04,27,14.60
2008,08,13,04,28,14.60
2008,08,13,04,29,14.60
2008,08,13,04,30,14.60
2008,08,13,04,31,14.50
2008,08,13,04,32,14.50
2008,08,13,04,33,14.50
2008,08,13,04,34,14.40
2008,08,13,04,35,14.40
2008,08,13,04,36,14.40
2008,08,13,04,37,14.40
2008,08,13,04,38,14.40
2008,08,13,04,39,14.40
2008,08,13,04,40,14.30
2008,08,13,04,41,14.30
2008,08,13,04,42,14.30
2008,08,13,04,43,14.30
2008,08,13,04,44,14.30
2008,08,13,04,45,14.20
2008,08,13,04,46,14.20
2008,08,13,04,47,14.20
2008,08,13,04,48,14.20
2008,08,13,04,49,14.20
2008,08,13,04,50,14.20
2008,08,13,04,51,14.20
2008,08,13,04,52,14.20
2008,08,13,04,53,14.20
2008,08,13,04,54,14.10
2008,08,13,04,55,14.10
2008,08,13,04,56,14.10
2008,08,13,04,57,14.10
2008,08,13,04,58,14.10
2008,08,13,04,59,14.10
2008,08,13,05,00,14.00
2008,08,13,05,01,14.00
2008,08,13,05,02,14.00
2008,08,13,05,03,14.00
2008,08,13,05,04,14.00
2008,08,13,05,05,14.00
2008,08,13,05,06,14.00
2008,08,13,05,07,14.00
2008,08,13,05,08,14.00
2008,08,13,05,09,13.90
2008,08,13,05,10,13.90
2008,08,13,05,11,13.90
2008,08,13,05,12,13.90
2008,08,13,05,13,13.90
2008,08,13,05,14,13.90
2008,08,13,05,15,13.80
2008,08,13,05,16,13.80
2008,08,13,05,17,13.80
2008,08,13,05,18,13.80
2008,08,13,05,19,13.70
2008,08,13,05,20,13.70
2008,08,13,05,21,13.70
2008,08,13,05,22,13.70
2008,08,13,05,23,13.70
2008,08,13,05,24,13.70
2008,08,13,05,25,13.70
2008,08,13,05,26,13.70
2008,08,13,05,27,13.70
2008,08,13,05,28,13.70
2008,08,13,05,29,13.70
2008,08,13,05,30,13.80
2008,08,13,05,31,13.80
2008,08,13,05,32,13.80
2008,08,13,05,33,13.70
2008,08,13,05,34,13.70
2008,08,13,05,35,13.70
2008,08,13,05,36,13.70
2008,08,13,05,37,13.70
2008,08,13,05,38,13.70
2008,08,13,05,39,13.70
2008,08,13,05,40,13.70
2008,08,13,05,41,13.70
2008,08,13,05,42,13.70
2008,08,13,05,43,13.70
2008,08,13,05,44,13.70
2008,08,13,05,45,13.70
2008,08,13,05,46,13.70
2008,08,13,05,47,13.70
2008,08,13,05,48,13.70
2008,08,13,05,49,13.60
2008,08,13,05,50,13.60
2008,08,13,05,51,13.60
2008,08,13,05,52,13.60
2008,08,13,05,53,13.60
2008,08,13,05,54,13.60
2008,08,13,05,55,13.60
2008,08,13,05,56,13.60
2008,08,13,05,57,13.50
2008,08,13,05,58,13.50
2008,08,13,05,59,13.50
2008,08,13,06,00,13.50
2008,08,13,06,01,13.50
2008,08,13,06,02,13.50
2008,08,13,06,03,13.50
2008,08,13,06,04,13.50
2008,08,13,06,05,13.50
2008,08,13,06,06,13.50
2008,08,13,06,07,13.50
2008,08,13,06,08,13.50
2008,08,13,06,09,13.50
2008,08,13,06,10,13.50
2008,08,13,06,11,13.50
2008,08,13,06,12,13.50
2008,08,13,06,13,13.40
2008,08,13,06,14,13.40
2008,08,13,06,15,13.40
2008,08,13,06,16,13.40
2008,08,13,06,17,13.40
2008,08,13,06,18,13.40
2008,08,13,06,19,13.40
2008,08,13,06,20,13.40
2008,08,13,06,21,13.40
2008,08,13,06,22,13.40
2008,08,13,06,23,13.40
2008,08,13,06,24,13.40
2008,08,13,06,25,13.40
2008,08,13,06,26,13.40
2008,08,13,06,27,13.40
2008,08,13,06,28,13.50
2008,08,13,06,29,13.50
2008,08,13,06,30,13.50
2008,08,13,06,31,13.50
2008,08,13,06,32,13.50
2008,08,13,06,33,13.50
2008,08,13,06,34,13.40
2008,08,13,06,35,13.40
2008,08,13,06,36,13.40
2008,08,13,06,37,13.40
2008,08,13,06,38,13.30
2008,08,13,06,39,13.30
2008,08,13,06,40,13.30
2008,08,13,06,41,13.30
2008,08,13,06,42,13.30
2008,08,13,06,43,13.30
2008,08,13,06,44,13.30
2008,08,13,06,45,13.30
2008,08,13,06,46,13.30
2008,08,13,06,47,13.30
2008,08,13,06,48,13.40
2008,08,13,06,49,13.40
2008,08,13,06,50,13.50
2008,08,13,06,51,13.50
2008,08,13,06,52,13.50
2008,08,13,06,53,13.50
2008,08,13,06,54,13.60
2008,08,13,06,55,13.60
2008,08,13,06,56,13.60
2008,08,13,06,57,13.60
2008,08,13,06,58,13.60
2008,08,13,06,59,13.60
2008,08,13,07,00,13.60
2008,08,13,07,01,13.60
2008,08,13,07,02,13.60
2008,08,13,07,03,13.60
2008,08,13,07,04,13.60
2008,08,13,07,05,13.60
2008,08,13,07,06,13.50
2008,08,13,07,07,13.50
2008,08,13,07,08,13.50
2008,08,13,07,09,13.60
2008,08,13,07,10,13.60
2008,08,13,07,11,13.60
2008,08,13,07,12,13.60
2008,08,13,07,13,13.70
2008,08,13,07,14,13.70
2008,08,13,07,15,13.70
2008,08,13,07,16,13.70
2008,08,13,07,17,13.70
2008,08,13,07,18,13.70
2008,08,13,07,19,13.70
2008,08,13,07,20,13.70
2008,08,13,07,21,13.70
2008,08,13,07,22,13.70
2008,08,13,07,23,13.70
2008,08,13,07,24,13.80
2008,08,13,07,25,13.80
2008,08,13,07,26,13.80
2008,08,13,07,27,13.90
2008,08,13,07,28,14.00
2008,08,13,07,29,14.10
2008,08,13,07,30,14.20
2008,08,13,07,31,14.20
2008,08,13,07,32,14.30
2008,08,13,07,33,14.40
2008,08,13,07,34,14.50
2008,08,13,07,35,14.50
2008,08,13,07,36,14.60
2008,08,13,07,37,14.60
2008,08,13,07,38,14.70
2008,08,13,07,39,14.80
2008,08,13,07,40,14.80
2008,08,13,07,41,14.80
2008,08,13,07,42,14.90
2008,08,13,07,43,14.90
2008,08,13,07,44,15.00
2008,08,13,07,45,15.00
2008,08,13,07,46,15.10
2008,08,13,07,47,15.20
2008,08,13,07,48,15.20
2008,08,13,07,49,15.30
2008,08,13,07,50,15.30
2008,08,13,07,51,15.40
2008,08,13,07,52,15.50
2008,08,13,07,53,15.60
2008,08,13,07,54,15.60
2008,08,13,07,55,15.70
2008,08,13,07,56,15.80
2008,08,13,07,57,15.80
2008,08,13,07,58,15.90
2008,08,13,07,59,16.10
2008,08,13,08,00,16.10
2008,08,13,08,01,16.20
2008,08,13,08,02,16.30
2008,08,13,08,03,16.40
2008,08,13,08,04,16.50
2008,08,13,08,05,16.70
2008,08,13,08,06,16.80
2008,08,13,08,07,17.00
2008,08,13,08,08,17.10
2008,08,13,08,09,17.20
2008,08,13,08,10,17.30
2008,08,13,08,11,17.40
2008,08,13,08,12,17.50
2008,08,13,08,13,17.60
2008,08,13,08,14,17.70
2008,08,13,08,15,17.80
2008,08,13,08,16,18.00
2008,08,13,08,17,18.10
2008,08,13,08,18,18.20
2008,08,13,08,19,18.40
2008,08,13,08,20,18.50
2008,08,13,08,21,18.60
2008,08,13,08,22,18.70
2008,08,13,08,23,18.80
2008,08,13,08,24,18.90
2008,08,13,08,25,18.90
2008,08,13,08,26,18.90
2008,08,13,08,27,18.90
2008,08,13,08,28,18.90
2008,08,13,08,29,18.80
2008,08,13,08,30,18.80
2008,08,13,08,31,18.80
2008,08,13,08,32,18.80
2008,08,13,08,33,18.80
2008,08,13,08,34,18.80
2008,08,13,08,35,18.80
2008,08,13,08,36,18.80
2008,08,13,08,37,18.80
2008,08,13,08,38,18.80
2008,08,13,08,39,18.80
2008,08,13,08,40,18.90
2008,08,13,08,41,18.90
2008,08,13,08,42,18.90
2008,08,13,08,43,19.00
2008,08,13,08,44,19.10
2008,08,13,08,45,19.10
2008,08,13,08,46,19.20
2008,08,13,08,47,19.30
2008,08,13,08,48,19.40
2008,08,13,08,49,19.50
2008,08,13,08,50,19.60
2008,08,13,08,51,19.70
2008,08,13,08,52,19.80
2008,08,13,08,53,19.90
2008,08,13,08,54,19.90
2008,08,13,08,55,20.00
2008,08,13,08,56,20.10
2008,08,13,08,57,20.20
2008,08,13,08,58,20.20
2008,08,13,08,59,20.20
2008,08,13,09,00,20.20
2008,08,13,09,01,20.10
2008,08,13,09,02,19.90
2008,08,13,09,03,19.90
2008,08,13,09,04,19.90
2008,08,13,09,05,19.90
2008,08,13,09,06,19.90
2008,08,13,09,07,19.90
2008,08,13,09,08,19.90
2008,08,13,09,09,19.90
2008,08,13,09,10,19.80
2008,08,13,09,11,19.70
2008,08,13,09,12,19.70
2008,08,13,09,13,19.60
2008,08,13,09,14,19.50
2008,08,13,09,15,19.40
2008,08,13,09,16,19.40
2008,08,13,09,17,19.30
2008,08,13,09,18,19.10
2008,08,13,09,19,19.10
2008,08,13,09,20,19.00
2008,08,13,09,21,18.90
2008,08,13,09,22,18.90
2008,08,13,09,23,18.70
2008,08,13,09,24,18.70
2008,08,13,09,25,18.70
2008,08,13,09,26,18.60
2008,08,13,09,27,18.60
2008,08,13,09,28,18.60
2008,08,13,09,29,18.60
2008,08,13,09,30,18.60
2008,08,13,09,31,18.60
2008,08,13,09,32,18.60
2008,08,13,09,33,18.60
2008,08,13,09,34,18.50
2008,08,13,09,35,18.50
2008,08,13,09,36,18.50
2008,08,13,09,37,18.60
2008,08,13,09,38,18.70
2008,08,13,09,39,18.80
2008,08,13,09,40,18.90
2008,08,13,09,41,18.90
2008,08,13,09,42,18.90
2008,08,13,09,43,18.90
2008,08,13,09,44,18.90
2008,08,13,09,45,18.90
2008,08,13,09,46,18.90
2008,08,13,09,47,18.90
2008,08,13,09,48,18.90
2008,08,13,09,49,19.00
2008,08,13,09,50,19.10
2008,08,13,09,51,19.20
2008,08,13,09,52,19.20
2008,08,13,09,53,19.20
2008,08,13,09,54,19.10
2008,08,13,09,55,19.10
2008,08,13,09,56,19.10
2008,08,13,09,57,19.00
2008,08,13,09,58,18.90
2008,08,13,09,59,19.00
2008,08,13,10,00,19.10
2008,08,13,10,01,19.10
2008,08,13,10,02,19.10
2008,08,13,10,03,19.10
2008,08,13,10,04,19.20
2008,08,13,10,05,19.30
2008,08,13,10,06,19.30
2008,08,13,10,07,19.40
2008,08,13,10,08,19.60
2008,08,13,10,09,19.70
2008,08,13,10,10,19.70
2008,08,13,10,11,19.80
2008,08,13,10,12,19.90
2008,08,13,10,13,19.90
2008,08,13,10,14,19.90
2008,08,13,10,15,19.90
2008,08,13,10,16,19.90
2008,08,13,10,17,19.90
2008,08,13,10,18,19.90
2008,08,13,10,19,19.90
2008,08,13,10,20,20.00
2008,08,13,10,21,20.10
2008,08,13,10,22,20.20
2008,08,13,10,23,20.20
2008,08,13,10,24,20.20
2008,08,13,10,25,20.20
2008,08,13,10,26,20.20
2008,08,13,10,27,20.20
2008,08,13,10,28,20.20
2008,08,13,10,29,20.20
2008,08,13,10,30,20.10
2008,08,13,10,31,20.00
2008,08,13,10,32,19.90
2008,08,13,10,33,19.90
2008,08,13,10,34,20.00
2008,08,13,10,35,20.10
2008,08,13,10,36,20.10
2008,08,13,10,37,20.10
2008,08,13,10,38,20.10
2008,08,13,10,39,20.00
2008,08,13,10,40,19.90
2008,08,13,10,41,19.90
2008,08,13,10,42,19.70
2008,08,13,10,43,19.70
2008,08,13,10,44,19.70
2008,08,13,10,45,19.80
2008,08,13,10,46,19.90
2008,08,13,10,47,19.90
2008,08,13,10,48,20.10
2008,08,13,10,49,20.20
2008,08,13,10,50,20.20
2008,08,13,10,51,20.20
2008,08,13,10,52,20.30
2008,08,13,10,53,20.40
2008,08,13,10,54,20.40
2008,08,13,10,55,20.50
2008,08,13,10,56,20.60
2008,08,13,10,57,20.60
2008,08,13,10,58,20.60
2008,08,13,10,59,20.80
2008,08,13,11,00,20.80
2008,08,13,11,01,20.80
2008,08,13,11,02,20.90
2008,08,13,11,03,21.00
2008,08,13,11,04,21.10
2008,08,13,11,05,21.10
2008,08,13,11,06,21.00
2008,08,13,11,07,21.00
2008,08,13,11,08,20.90
2008,08,13,11,09,20.80
2008,08,13,11,10,20.90
2008,08,13,11,11,20.90
2008,08,13,11,12,20.90
2008,08,13,11,13,20.80
2008,08,13,11,14,20.70
2008,08,13,11,15,20.60
2008,08,13,11,16,20.60
2008,08,13,11,17,20.60
2008,08,13,11,18,20.50
2008,08,13,11,19,20.40
2008,08,13,11,20,20.40
2008,08,13,11,21,20.30
2008,08,13,11,22,20.30
2008,08,13,11,23,20.20
2008,08,13,11,24,20.20
2008,08,13,11,25,20.30
2008,08,13,11,26,20.30
2008,08,13,11,27,20.40
2008,08,13,11,28,20.40
2008,08,13,11,29,20.50
2008,08,13,11,30,20.50
2008,08,13,11,31,20.50
2008,08,13,11,32,20.50
2008,08,13,11,33,20.60
2008,08,13,11,34,20.70
2008,08,13,11,35,20.60
2008,08,13,11,36,20.50
2008,08,13,11,37,20.60
2008,08,13,11,38,20.60
2008,08,13,11,39,20.60
2008,08,13,11,40,20.70
2008,08,13,11,41,20.70
2008,08,13,11,42,20.80
2008,08,13,11,43,20.80
2008,08,13,11,44,20.90
2008,08,13,11,45,21.00
2008,08,13,11,46,21.10
2008,08,13,11,47,21.20
2008,08,13,11,48,21.30
2008,08,13,11,49,21.40
2008,08,13,11,50,21.40
2008,08,13,11,51,21.40
2008,08,13,11,52,21.30
2008,08,13,11,53,21.20
2008,08,13,11,54,21.20
2008,08,13,11,55,21.20
2008,08,13,11,56,21.30
2008,08,13,11,57,21.30
2008,08,13,11,58,21.30
2008,08,13,11,59,21.30
2008,08,13,12,00,21.40
2008,08,13,12,01,21.50
2008,08,13,12,02,21.60
2008,08,13,12,03,21.60
2008,08,13,12,04,21.60
2008,08,13,12,05,21.40
2008,08,13,12,06,21.40
2008,08,13,12,07,21.40
2008,08,13,12,08,21.40
2008,08,13,12,09,21.40
2008,08,13,12,10,21.50
2008,08,13,12,11,21.40
2008,08,13,12,12,21.40
2008,08,13,12,13,21.40
2008,08,13,12,14,21.60
2008,08,13,12,15,21.40
2008,08,13,12,16,21.20
2008,08,13,12,17,21.10
2008,08,13,12,18,21.20
2008,08,13,12,19,21.00
2008,08,13,12,20,20.80
2008,08,13,12,21,20.60
2008,08,13,12,22,20.60
2008,08,13,12,23,20.60
2008,08,13,12,24,20.80
2008,08,13,12,25,20.90
2008,08,13,12,26,21.00
2008,08,13,12,27,21.00
2008,08,13,12,28,21.00
2008,08,13,12,29,21.10
2008,08,13,12,30,21.20
2008,08,13,12,31,21.30
2008,08,13,12,32,21.30
2008,08,13,12,33,21.30
2008,08,13,12,34,21.40
2008,08,13,12,35,21.50
2008,08,13,12,36,21.60
2008,08,13,12,37,21.60
2008,08,13,12,38,21.40
2008,08,13,12,39,21.30
2008,08,13,12,40,21.10
2008,08,13,12,41,21.00
2008,08,13,12,42,21.00
2008,08,13,12,43,21.10
2008,08,13,12,44,21.20
2008,08,13,12,45,21.30
2008,08,13,12,46,21.50
2008,08,13,12,47,21.60
2008,08,13,12,48,21.80
2008,08,13,12,49,21.90
2008,08,13,12,50,22.00
2008,08,13,12,51,22.00
2008,08,13,12,52,22.00
2008,08,13,12,53,22.00
2008,08,13,12,54,22.00
2008,08,13,12,55,22.00
2008,08,13,12,56,21.70
2008,08,13,12,57,21.60
2008,08,13,12,58,21.40
2008,08,13,12,59,21.60
2008,08,13,13,00,21.60
2008,08,13,13,01,21.60
2008,08,13,13,02,21.60
2008,08,13,13,03,21.70
2008,08,13,13,04,21.60
2008,08,13,13,05,21.40
2008,08,13,13,06,21.30
2008,08,13,13,07,21.30
2008,08,13,13,08,21.30
2008,08,13,13,09,21.30
2008,08,13,13,10,21.20
2008,08,13,13,11,21.20
2008,08,13,13,12,21.30
2008,08,13,13,13,21.50
2008,08,13,13,14,21.60
2008,08,13,13,15,21.70
2008,08,13,13,16,21.80
2008,08,13,13,17,21.80
2008,08,13,13,18,21.90
2008,08,13,13,19,22.00
2008,08,13,13,20,22.10
2008,08,13,13,21,22.10
2008,08,13,13,22,22.10
2008,08,13,13,23,22.10
2008,08,13,13,24,22.20
2008,08,13,13,25,22.20
2008,08,13,13,26,22.20
2008,08,13,13,27,22.30
2008,08,13,13,28,22.30
2008,08,13,13,29,22.40
2008,08,13,13,30,22.30
2008,08,13,13,31,22.40
2008,08,13,13,32,22.50
2008,08,13,13,33,22.60
2008,08,13,13,34,22.70
2008,08,13,13,35,22.80
2008,08,13,13,36,22.90
2008,08,13,13,37,22.90
2008,08,13,13,38,22.90
2008,08,13,13,39,22.90
2008,08,13,13,40,22.90
2008,08,13,13,41,22.80
2008,08,13,13,42,22.80
2008,08,13,13,43,22.90
2008,08,13,13,44,23.00
2008,08,13,13,45,23.10
2008,08,13,13,46,23.00
2008,08,13,13,47,22.90
2008,08,13,13,48,22.90
2008,08,13,13,49,22.70
2008,08,13,13,50,22.60
2008,08,13,13,51,22.60
2008,08,13,13,52,22.70
2008,08,13,13,53,22.80
2008,08,13,13,54,22.90
2008,08,13,13,55,22.90
2008,08,13,13,56,22.90
2008,08,13,13,57,22.90
2008,08,13,13,58,22.90
2008,08,13,13,59,22.80
2008,08,13,14,00,22.80
2008,08,13,14,01,22.80
2008,08,13,14,02,22.80
2008,08,13,14,03,22.80
2008,08,13,14,04,22.80
2008,08,13,14,05,22.70
2008,08,13,14,06,22.70
2008,08,13,14,07,22.80
2008,08,13,14,08,22.80
2008,08,13,14,09,22.90
2008,08,13,14,10,22.90
2008,08,13,14,11,23.10
2008,08,13,14,12,23.10
2008,08,13,14,13,23.10
2008,08,13,14,14,23.10
2008,08,13,14,15,23.10
2008,08,13,14,16,23.10
2008,08,13,14,17,22.90
2008,08,13,14,18,22.70
2008,08,13,14,19,22.60
2008,08,13,14,20,22.50
2008,08,13,14,21,22.40
2008,08,13,14,22,22.30
2008,08,13,14,23,22.20
2008,08,13,14,24,22.10
2008,08,13,14,25,22.10
2008,08,13,14,26,22.10
2008,08,13,14,27,22.10
2008,08,13,14,28,22.20
2008,08,13,14,29,22.30
2008,08,13,14,30,22.40
2008,08,13,14,31,22.40
2008,08,13,14,32,22.50
2008,08,13,14,33,22.60
2008,08,13,14,34,22.60
2008,08,13,14,35,22.60
2008,08,13,14,36,22.70
2008,08,13,14,37,22.80
2008,08,13,14,38,22.90
2008,08,13,14,39,22.90
2008,08,13,14,40,22.80
2008,08,13,14,41,22.70
2008,08,13,14,42,22.60
2008,08,13,14,43,22.50
2008,08,13,14,44,22.40
2008,08,13,14,45,22.50
2008,08,13,14,46,22.50
2008,08,13,14,47,22.40
2008,08,13,14,48,22.40
2008,08,13,14,49,22.30
2008,08,13,14,50,22.30
2008,08,13,14,51,22.20
2008,08,13,14,52,22.20
2008,08,13,14,53,22.30
2008,08,13,14,54,22.50
2008,08,13,14,55,22.50
2008,08,13,14,56,22.60
2008,08,13,14,57,22.60
2008,08,13,14,58,22.60
2008,08,13,14,59,22.60
2008,08,13,15,00,22.70
2008,08,13,15,01,22.90
2008,08,13,15,02,22.90
2008,08,13,15,03,22.90
2008,08,13,15,04,22.90
2008,08,13,15,05,23.00
2008,08,13,15,06,23.10
2008,08,13,15,07,23.10
2008,08,13,15,08,23.10
2008,08,13,15,09,22.90
2008,08,13,15,10,23.00
2008,08,13,15,11,23.20
2008,08,13,15,12,23.30
2008,08,13,15,13,23.30
2008,08,13,15,14,23.30
2008,08,13,15,15,23.40
2008,08,13,15,16,23.40
2008,08,13,15,17,23.40
2008,08,13,15,18,23.30
2008,08,13,15,19,23.30
2008,08,13,15,20,23.30
2008,08,13,15,21,23.30
2008,08,13,15,22,23.30
2008,08,13,15,23,23.30
2008,08,13,15,24,23.30
2008,08,13,15,25,23.30
2008,08,13,15,26,23.20
2008,08,13,15,27,23.30
2008,08,13,15,28,23.30
2008,08,13,15,29,23.30
2008,08,13,15,30,23.40
2008,08,13,15,31,23.60
2008,08,13,15,32,23.50
2008,08,13,15,33,23.30
2008,08,13,15,34,23.20
2008,08,13,15,35,23.10
2008,08,13,15,36,23.10
2008,08,13,15,37,23.00
2008,08,13,15,38,22.90
2008,08,13,15,39,22.90
2008,08,13,15,40,22.90
2008,08,13,15,41,22.90
2008,08,13,15,42,22.90
2008,08,13,15,43,23.10
2008,08,13,15,44,23.20
2008,08,13,15,45,23.30
2008,08,13,15,46,23.40
2008,08,13,15,47,23.50
2008,08,13,15,48,23.70
2008,08,13,15,49,23.80
2008,08,13,15,50,23.80
2008,08,13,15,51,23.80
2008,08,13,15,52,23.70
2008,08,13,15,53,23.70
2008,08,13,15,54,23.80
2008,08,13,15,55,23.80
2008,08,13,15,56,23.90
2008,08,13,15,57,23.80
2008,08,13,15,58,23.80
2008,08,13,15,59,23.80
2008,08,13,16,00,23.90
2008,08,13,16,01,23.80
2008,08,13,16,02,23.80
2008,08,13,16,03,23.70
2008,08,13,16,04,23.80
2008,08,13,16,05,23.70
2008,08,13,16,06,23.70
2008,08,13,16,07,23.70
2008,08,13,16,08,23.80
2008,08,13,16,09,23.90
2008,08,13,16,10,23.90
2008,08,13,16,11,23.80
2008,08,13,16,12,23.70
2008,08,13,16,13,23.50
2008,08,13,16,14,23.40
2008,08,13,16,15,23.40
2008,08,13,16,16,23.50
2008,08,13,16,17,23.50
2008,08,13,16,18,23.40
2008,08,13,16,19,23.40
2008,08,13,16,20,23.40
2008,08,13,16,21,23.30
2008,08,13,16,22,23.30
2008,08,13,16,23,23.30
2008,08,13,16,24,23.30
2008,08,13,16,25,23.30
2008,08,13,16,26,23.30
2008,08,13,16,27,23.30
2008,08,13,16,28,23.20
2008,08,13,16,29,23.20
2008,08,13,16,30,23.20
2008,08,13,16,31,23.20
2008,08,13,16,32,23.30
2008,08,13,16,33,23.40
2008,08,13,16,34,23.60
2008,08,13,16,35,23.60
2008,08,13,16,36,23.60
2008,08,13,16,37,23.60
2008,08,13,16,38,23.60
2008,08,13,16,39,23.50
2008,08,13,16,40,23.40
2008,08,13,16,41,23.30
2008,08,13,16,42,23.30
2008,08,13,16,43,23.40
2008,08,13,16,44,23.50
2008,08,13,16,45,23.70
2008,08,13,16,46,23.70
2008,08,13,16,47,23.80
2008,08,13,16,48,23.80
2008,08,13,16,49,23.80
2008,08,13,16,50,23.70
2008,08,13,16,51,23.60
2008,08,13,16,52,23.50
2008,08,13,16,53,23.40
2008,08,13,16,54,23.50
2008,08,13,16,55,23.60
2008,08,13,16,56,23.60
2008,08,13,16,57,23.60
2008,08,13,16,58,23.60
2008,08,13,16,59,23.60
2008,08,13,17,00,23.70
2008,08,13,17,01,23.80
2008,08,13,17,02,23.80
2008,08,13,17,03,23.80
2008,08,13,17,04,23.80
2008,08,13,17,05,23.80
2008,08,13,17,06,23.80
2008,08,13,17,07,23.70
2008,08,13,17,08,23.70
2008,08,13,17,09,23.70
2008,08,13,17,10,23.70
2008,08,13,17,11,23.60
2008,08,13,17,12,23.60
2008,08,13,17,13,23.60
2008,08,13,17,14,23.60
2008,08,13,17,15,23.60
2008,08,13,17,16,23.50
2008,08,13,17,17,23.40
2008,08,13,17,18,23.50
2008,08,13,17,19,23.60